Location: Newark
(42.8481°N, 0.4872°E)
Time: 16:57:47
(UTC+00:00)

A-11 Canister half - Pass Details

Date: 01 November 2020
Orbit: 1525 x 1683 km, 47.3° (Epoch: 22 November)

Event Time Altitude Azimuth Distance (km) Brightness Sun altitude
Rises 19:01:30 0° 295° (WNW) 4,714 12.7 -24.5°
Reaches altitude 10° 19:04:36 10° 293° (WNW) 3,716 11.9 -25.1°
Maximum altitude 19:13:49 68° 213° (SSW) 1,628 9.1 -26.8°
Enters shadow 19:18:10 35° 143° (SE) 2,269 9.5 -27.6°
Drops below altitude 10° 19:22:59 10° 133° (SE) 3,695 - -28.5°
Sets 19:26:03 0° 131° (SE) 4,685 - -29.0°
